Osborn, Maine
Current Conditions -  °F | °C
As of 3:55 AM on Saturday 25 Oct 2014 (Local Time) from KBHB Reporting Station
Overcast Overcast  
Wind Chill: 41°   Ceiling: 1200
Heat Index: 45°   Visibility: 10mi
Dew Point: 45°   Wind: 6mph
Humidity: 100%   Direction: 340°NNW
Pressure: 29.64"   Gusts: NA
Location:  44.6651°N, 68.3944°W
Report Text: KBHB 250755Z AUTO 34005KT 10SM OVC012 07/07 A2964 RMK AO1
Loading
Personal Weather Stations






























Interactive Weather Map
Tropical Storm Tracking
New forecast layout! Learn more

10-Day Weather Forecast

Advertisements
Track Severe Weather on mobile